Date String (YYYY-MM-DD hh:mm:ss) UTC,Instrument flags,absolute air pressure of the measurement (hPa),sample flow rate (lpm),inlet stack bypass flow (lpm),air temperature of the measurement (°C),ambient temperature measured by the external sensor (°C),aerosol sample conditioner tube jacket temperature (°C),OPC LED temperature (°C),internal box temperature (°C),relative humidity of the measurement (%),span deviation,mass concentration of particles derived from Lorenz-Mie calculation of OPC scattering (μg/m³),mass concentration of particles derived from Lorenz-Mie calculation of OPC scattering (μg/m³),mass concentration of particles derived from Lorenz-Mie calculation of OPC scattering (μg/m³)
DateTimeUTC,F1_M11,P_M11,Q1_M11,Q2_M11,T1_M11,T2_M11,T3_M11,T4_M11,T5_M11,U1_M11,ZSPAN_M11,X0_M11,X2_M11,X1_M11
2023-06-17 15:00:00,SystemResetWarning,0831.4,5.00,000.00,030.6,029.0,000.0,039.1,032.0,26.1,0000.0,0006.92,0003.72,0003.51
2023-06-17 15:01:00,SystemResetWarning,0831.4,5.00,000.00,030.6,029.0,000.0,039.2,032.0,26.4,0000.0,0006.32,0003.70,0003.50
2023-06-17 15:02:00,SystemResetWarning,0831.4,5.00,000.00,030.6,029.0,000.0,039.2,032.1,26.4,0000.0,0006.08,0003.67,0003.49
2023-06-17 15:03:00,SystemResetWarning,0831.4,5.00,000.00,030.6,029.1,000.0,039.2,032.1,26.2,0000.0,0006.14,0003.68,0003.48
2023-06-17 15:04:00,SystemResetWarning,0831.3,5.00,000.00,030.7,029.1,000.0,039.2,032.1,26.3,0000.0,0006.25,0003.66,0003.47
2023-06-17 15:05:00,SystemResetWarning,0831.3,5.00,000.00,030.7,029.1,000.0,039.2,032.2,26.6,0000.0,0006.31,0003.67,0003.46
2023-06-17 15:06:00,SystemResetWarning,0831.3,4.99,000.00,030.7,028.0,000.0,039.1,032.2,27.3,0000.0,0006.35,0003.66,0003.45
2023-06-17 15:07:00,SystemResetWarning,0831.3,5.00,000.00,030.7,025.9,000.0,039.1,032.1,27.2,0000.0,0006.32,0003.64,0003.43
2023-06-17 15:08:00,SystemResetWarning,0831.3,5.00,000.00,030.6,025.3,000.0,039.0,032.0,26.9,0000.0,0006.26,0003.63,0003.42
2023-06-17 15:09:00,SystemResetWarning,0831.2,5.02,000.00,030.5,025.6,000.0,039.0,031.7,26.9,0000.0,0005.84,0003.63,0003.41
2023-06-17 15:10:00,SystemResetWarning,0831.2,4.99,000.00,030.4,026.0,000.0,039.0,031.6,27.1,0000.0,0005.60,0003.64,0003.41
2023-06-17 15:11:00,SystemResetWarning,0831.2,5.00,000.00,030.3,026.4,000.0,039.0,031.5,27.6,0000.0,0005.61,0003.63,0003.41
2023-06-17 15:12:00,SystemResetWarning,0831.1,5.00,000.00,030.3,026.8,000.0,039.0,031.5,27.9,0000.0,0005.59,0003.61,0003.40
2023-06-17 15:13:00,SystemResetWarning,0831.1,4.98,000.00,030.3,027.1,000.0,038.9,031.6,26.9,0000.0,0005.67,0003.61,0003.39
2023-06-17 15:14:00,SystemResetWarning,0831.1,4.99,000.00,030.2,027.4,000.0,038.9,031.6,27.1,0000.0,0005.64,0003.59,0003.38
2023-06-17 15:15:00,SystemResetWarning,0831.1,5.01,000.00,030.2,027.6,000.0,038.9,031.6,26.8,0000.0,0005.46,0003.57,0003.37
2023-06-17 15:16:00,SystemResetWarning,0831.1,5.01,000.00,030.2,027.8,000.0,038.9,031.6,27.2,0000.0,0005.39,0003.54,0003.36
2023-06-17 15:17:00,SystemResetWarning,0831.1,5.00,000.00,030.2,028.0,000.0,038.9,031.6,27.2,0000.0,0005.32,0003.54,0003.35
2023-06-17 15:18:00,SystemResetWarning,0831.1,5.00,000.00,030.2,028.1,000.0,038.9,031.6,26.9,0000.0,0005.31,0003.54,0003.34
2023-06-17 15:19:00,SystemResetWarning,0831.1,5.00,000.00,030.2,028.2,000.0,038.8,031.6,26.5,0000.0,0005.14,0003.50,0003.33
2023-06-17 15:20:00,SystemResetWarning,0831.2,5.00,000.00,030.2,028.3,000.0,038.8,031.7,26.9,0000.0,0005.00,0003.48,0003.32
2023-06-17 15:21:00,SystemResetWarning,0831.1,5.00,000.00,030.2,028.4,000.0,038.8,031.7,26.3,0000.0,0004.53,0003.45,0003.28
2023-06-17 15:22:00,SystemResetWarning,0831.1,5.00,000.00,030.2,028.4,000.0,038.8,031.7,26.7,0000.0,0004.41,0003.43,0003.26
2023-06-17 15:23:00,SystemResetWarning,0831.2,5.00,000.00,030.2,028.5,000.0,038.8,031.7,26.3,0000.0,0004.28,0003.40,0003.24
2023-06-17 15:24:00,SystemResetWarning,0831.2,5.00,000.00,030.3,028.6,000.0,038.8,031.7,25.8,0000.0,0004.30,0003.40,0003.21
2023-06-17 15:25:00,SystemResetWarning,0831.1,5.00,000.00,030.3,028.6,000.0,038.8,031.7,26.9,0000.0,0004.38,0003.39,0003.19
2023-06-17 15:26:00,SystemResetWarning,0831.2,5.00,000.00,030.3,028.6,000.0,038.8,031.8,26.4,0000.0,0004.51,0003.37,0003.17
2023-06-17 15:27:00,SystemResetWarning,0831.2,5.00,000.00,030.3,028.7,000.0,038.8,031.8,25.3,0000.0,0004.53,0003.34,0003.15
2023-06-17 15:28:00,SystemResetWarning,0831.1,5.00,000.00,030.3,028.7,000.0,038.8,031.8,24.9,0000.0,0004.41,0003.30,0003.13
2023-06-17 15:29:00,SystemResetWarning,0831.2,5.00,000.00,030.3,028.7,000.0,038.9,031.8,24.4,0000.0,0004.40,0003.26,0003.09
2023-06-17 15:30:00,SystemResetWarning,0831.1,5.00,000.00,030.3,028.8,000.0,038.9,031.9,25.3,0000.0,0005.36,0003.25,0003.06
2023-06-17 15:31:00,SystemResetWarning,0831.1,5.00,000.00,030.4,028.8,000.0,038.9,031.9,25.4,0000.0,0005.61,0003.24,0003.03
2023-06-17 15:32:00,SystemResetWarning,0831.1,5.00,000.00,030.4,028.8,000.0,038.9,031.9,24.5,0000.0,0005.58,0003.22,0002.99
2023-06-17 15:33:00,SystemResetWarning,0831.1,5.01,000.00,030.4,028.8,000.0,038.9,031.9,23.8,0000.0,0005.50,0003.19,0002.95
2023-06-17 15:34:00,SystemResetWarning,0831.1,5.01,000.00,030.4,028.9,000.0,038.9,031.9,24.1,0000.0,0005.48,0003.17,0002.93
2023-06-17 15:35:00,SystemResetWarning,0831.2,5.00,000.00,030.4,028.9,000.0,038.9,031.9,24.4,0000.0,0005.37,0003.15,0002.90
2023-06-17 15:36:00,SystemResetWarning,0831.2,5.01,000.00,030.4,028.9,000.0,038.9,031.9,25.2,0000.0,0005.28,0003.13,0002.89
2023-06-17 15:37:00,SystemResetWarning,0831.2,5.00,000.00,030.4,028.9,000.0,038.9,032.0,25.5,0000.0,0005.07,0003.13,0002.89
2023-06-17 15:38:00,SystemResetWarning,0831.1,4.99,000.00,030.5,027.6,000.0,038.9,032.0,25.4,0000.0,0004.97,0003.13,0002.89
2023-06-17 15:39:00,SystemResetWarning,0831.1,5.00,000.00,030.4,025.5,000.0,038.8,031.7,25.3,0000.0,0004.99,0003.14,0002.90
2023-06-17 15:40:00,SystemResetWarning,0831.1,5.00,000.00,030.4,025.0,000.0,038.8,031.7,25.3,0000.0,0005.00,0003.16,0002.93
2023-06-17 15:41:00,SystemResetWarning,0831.1,5.01,000.00,030.2,025.3,000.0,038.7,031.4,26.6,0000.0,0004.35,0003.18,0002.95
2023-06-17 15:42:00,SystemResetWarning,0831.1,4.99,000.00,030.1,025.7,000.0,038.7,031.3,26.8,0000.0,0003.91,0003.20,0002.98
2023-06-17 15:43:00,SystemResetWarning,0831.1,5.00,000.00,030.1,026.1,000.0,038.7,031.3,26.6,0000.0,0003.98,0003.23,0003.03
2023-06-17 15:44:00,SystemResetWarning,0831.1,5.00,000.00,030.0,026.6,000.0,038.7,031.3,26.8,0000.0,0004.09,0003.27,0003.07
2023-06-17 15:45:00,SystemResetWarning,0831.2,4.99,000.00,030.0,026.9,000.0,038.7,031.3,26.7,0000.0,0004.13,0003.28,0003.10
2023-06-17 15:46:00,SystemResetWarning,0831.1,4.99,000.00,030.0,027.2,000.0,038.7,031.4,27.2,0000.0,0004.22,0003.30,0003.12
2023-06-17 15:47:00,SystemResetWarning,0831.1,5.03,000.00,030.0,027.4,000.0,038.7,031.4,27.3,0000.0,0004.31,0003.31,0003.15
2023-06-17 15:48:00,SystemResetWarning,0831.1,4.99,000.00,030.0,027.7,000.0,038.6,031.4,27.4,0000.0,0004.31,0003.32,0003.16
2023-06-17 15:49:00,SystemResetWarning,0831.1,5.00,000.00,030.0,027.8,000.0,038.6,031.4,27.0,0000.0,0004.34,0003.33,0003.18
2023-06-17 15:50:00,SystemResetWarning,0831.2,4.99,000.00,030.0,028.0,000.0,038.6,031.4,27.6,0000.0,0004.33,0003.34,0003.18
2023-06-17 15:51:00,SystemResetWarning,0831.1,5.00,000.00,030.0,028.1,000.0,038.6,031.5,27.4,0000.0,0004.34,0003.35,0003.19
2023-06-17 15:52:00,SystemResetWarning,0831.0,5.02,000.00,030.0,028.2,000.0,038.6,031.5,27.3,0000.0,0004.39,0003.37,0003.21
2023-06-17 15:53:00,SystemResetWarning,0831.0,5.00,000.00,030.0,028.3,000.0,038.6,031.6,27.1,0000.0,0004.57,0003.37,0003.21
2023-06-17 15:54:00,SystemResetWarning,0831.0,5.00,000.00,030.1,028.4,000.0,038.6,031.6,27.0,0000.0,0004.59,0003.38,0003.23
2023-06-17 15:55:00,SystemResetWarning,0830.9,5.00,000.00,030.1,028.4,000.0,038.6,031.6,27.2,0000.0,0004.54,0003.37,0003.23
2023-06-17 15:56:00,SystemResetWarning,0830.9,5.00,000.00,030.1,028.5,000.0,038.6,031.6,27.8,0000.0,0004.50,0003.37,0003.24
2023-06-17 15:57:00,SystemResetWarning,0830.9,5.00,000.00,030.1,028.5,000.0,038.6,031.7,27.0,0000.0,0004.40,0003.37,0003.25
2023-06-17 15:58:00,SystemResetWarning,0830.9,5.00,000.00,030.1,028.6,000.0,038.7,031.7,25.9,0000.0,0004.29,0003.37,0003.25
2023-06-17 15:59:00,SystemResetWarning,0830.9,5.00,000.00,030.1,028.6,000.0,038.7,031.7,26.5,0000.0,0004.26,0003.35,0003.24
